Location: Lango�lan
(48.1202°N, 3.2340°W)
Time: 18:26:37
(UTC+00:00)

NOSS 0 Rocket - Pass Details

Date: 23 October 2019
Orbit: 934 x 956 km, 70.0° (Epoch: 22 November)

Event Time Altitude Azimuth Distance (km) Brightness Sun altitude
Exits shadow 04:06:32 70° 274° (W) 1,000 3.8 -26.7°
Maximum altitude 04:06:54 72° 301° (WNW) 990 3.8 -26.7°
Drops below altitude 10° 04:13:07 10° 27° (NNE) 2,678 6.8 -25.7°
Sets 04:15:41 0° 29° (NNE) 3,630 7.6 -25.3°
